VK5GR-12 Weather Reports


time (UTC)temp
C
wind
direction
speed
KPH
gust
KPH
rain 1hr
cm
rain 24hr
cm
rain mn
cm
humidity
%
barometer
mb
20260505024806 16 318 1.6 3.2 0.00 0.23 0.23 68 1023.5
20260505023303 16 284 3.2 3.2 0.00 0.23 0.23 68 1023.7
20260505021800 16 278 0.0 0.0 0.00 0.23 0.23 71 1023.7
20260505020300 16 276 0.0 0.0 0.00 0.23 0.23 68 1023.9
20260505014758 15 287 0.0 0.0 0.00 0.23 0.23 75 1023.9
20260505013254 15 281 0.0 0.0 0.00 0.23 0.23 76 1024.2
20260505011751 15 276 0.0 0.0 0.00 0.23 0.23 79 1023.8
20260505010246 13 288 0.0 0.0 0.00 0.23 0.23 85 1023.6
20260505004743 13 281 0.0 0.0 0.00 0.23 0.23 92 1023.5
20260505003240 13 282 0.0 0.0 0.00 0.23 0.23 96 1023.5
20260505001737 13 279 0.0 1.6 0.00 0.23 0.23 98 1023.4
20260505000235 13 266 0.0 0.0 0.00 0.23 0.23 99 1023.2
20260504234730 13 267 0.0 0.0 0.00 0.23 0.23 99 1023.2
20260504233225 13 278 0.0 0.0 0.00 0.23 0.23 99 1023.2
20260504231722 13 293 0.0 0.0 0.00 0.23 0.23 99 1023.0
20260504230219 13 277 0.0 0.0 0.00 0.23 0.23 99 1023.0
20260504224716 12 278 0.0 0.0 0.00 0.23 0.23 99 1022.8
20260504223211 12 266 0.0 0.0 0.00 0.23 0.23 99 1022.8
20260504221709 12 277 0.0 0.0 0.00 0.23 0.23 99 1022.6
20260504220206 12 277 0.0 0.0 0.00 0.23 0.23 99 1022.4
20260504214706 12 276 0.0 0.0 0.00 0.23 0.23 99 1022.3
20260504213202 12 276 0.0 0.0 0.00 0.23 0.23 99 1022.2
20260504211659 11 303 0.0 0.0 0.18 0.23 0.23 99 1022.0
20260504210155 11 264 0.0 0.0 0.00 0.18 0.18 99 1021.6
20260504204654 11 259 0.0 0.0 0.00 0.18 0.18 99 1021.6
20260504203154 11 270 0.0 0.0 0.00 0.18 0.18 99 1021.6
20260504201654 11 270 0.0 0.0 0.00 0.18 0.18 99 1021.4
20260504200151 12 275 0.0 0.0 0.00 0.18 0.18 99 1021.2
20260504194646 11 268 0.0 0.0 0.00 0.18 0.18 99 1021.3
20260504193142 11 268 0.0 0.0 0.00 0.18 0.18 99 1021.1
20260504191642 11 250 0.0 0.0 0.00 0.15 0.15 99 1020.9
20260504190137 11 264 0.0 0.0 0.00 0.15 0.15 98 1020.8
20260504184638 11 264 0.0 0.0 0.00 0.15 0.15 98 1020.8
20260504183133 12 287 0.0 0.0 0.00 0.15 0.15 98 1020.7
20260504181631 11 291 0.0 0.0 0.18 0.13 0.13 98 1020.5
20260504180126 11 274 0.0 0.0 0.00 0.10 0.10 98 1020.5
20260504174624 12 266 0.0 0.0 0.00 0.10 0.10 98 1020.6
20260504173120 11 269 0.0 0.0 0.18 0.10 0.10 98 1020.6
20260504171615 11 285 0.0 0.0 0.00 0.08 0.08 98 1020.7
20260504170112 11 278 0.0 0.0 0.00 0.08 0.08 98 1020.9
20260504081435 15 292 1.6 1.6 0.00 0.99 0.99 74 1017.0
20260504045855 19 308 1.6 3.2 0.00 0.99 0.99 62 1015.1
20260504044350 18 292 1.6 1.6 0.00 0.99 0.99 63 1014.9
20260504042847 18 271 6.4 9.7 0.00 0.99 0.99 62 1014.7
20260504041342 17 334 0.0 1.6 0.00 0.99 0.99 66 1014.7
20260504035837 18 351 3.2 4.8 0.00 0.99 0.99 65 1014.8
20260504034336 18 301 4.8 6.4 0.00 0.99 0.99 66 1014.6
20260504032832 17 291 0.0 1.6 0.00 0.99 0.99 68 1014.7
20260504031330 17 281 4.8 4.8 0.00 0.99 0.99 69 1014.8
20260504025825 17 277 0.0 1.6 0.00 0.99 0.99 71 1014.9